Provincetown, Massachusetts, United States (02657)
Lat: 42.06N, Lon: 70.18W
Wx Zone: MAZ022
Local Info
Past Weather Observations for Today

NOTE: This archive is for the closest National Weather Service station to Provincetown. Information may differ from the station used for current weather conditions.

Click here for Long-term Archive

Time Weather Temperature Dewpoint Humidity Pressure Winds Precip Visibility
18:56
Mostly Cloudy
45°F / 7°C 39°F / 4°C 81% 29.71 in
(1006 mb)
SSW 8.1 mph
(SSW 13 kph)
- 10SM
18:08
Partly Cloudy
46°F / 8°C 39°F / 4°C 76% 29.71 in
(1006 mb)
W 8.1 mph
(W 13 kph)
- 10SM
17:56
Mostly Cloudy
46°F / 8°C 39°F / 4°C 76% 29.71 in
(1006 mb)
W 10.4 mph
(W 17 kph)
- 10SM
17:38
Mostly Cloudy
46°F / 8°C 39°F / 4°C 76% 29.71 in
(1006 mb)
W 10.4 mph
(W 17 kph)
- 10SM
16:56
Partly Cloudy
46°F / 8°C 43°F / 6°C 87% 29.68 in
(1005 mb)
W 8.1 mph
(W 13 kph)
- 10SM
15:56
Overcast
46°F / 8°C 43°F / 6°C 87% 29.68 in
(1005 mb)
NW 8.1 mph
(NW 13 kph)
- 10SM
14:56
Overcast
46°F / 8°C 43°F / 6°C 87% 29.65 in
(1004 mb)
NW 10.4 mph
(NW 17 kph)
- 10SM
13:56
Overcast
46°F / 8°C 43°F / 6°C 87% 29.65 in
(1004 mb)
NW 10.4 mph
(NW 17 kph)
- 10SM
12:56
Overcast
48°F / 9°C 45°F / 7°C 87% 29.65 in
(1004 mb)
NW 9.2 mph
(NW 15 kph)
- 10SM
12:32
Overcast
48°F / 9°C 46°F / 8°C 94% 29.65 in
(1004 mb)
NW 6.9 mph
(NW 11 kph)
- 10SM
11:56
Overcast
48°F / 9°C 46°F / 8°C 94% 29.65 in
(1004 mb)
Variable 6.9 mph
(Variable 11 kph)
- 10SM
11:24
Overcast
Fog And Mist
48°F / 9°C 48°F / 9°C 100% 29.65 in
(1004 mb)
NW 10.4 mph
(NW 17 kph)
- 2SM
10:56
Overcast
52°F / 11°C 50°F / 10°C 94% 29.68 in
(1005 mb)
Variable 5.8 mph
(Variable 9 kph)
- 10SM
10:23
Overcast
52°F / 11°C 52°F / 11°C 100% 29.68 in
(1005 mb)
SW 5.8 mph
(SW 9 kph)
- 10SM
09:56
Overcast
Fog And Mist
52°F / 11°C 52°F / 11°C 100% 29.68 in
(1005 mb)
SSW 6.9 mph
(SSW 11 kph)
- 6SM
09:31
Overcast
Fog And Mist
52°F / 11°C 50°F / 10°C 94% 29.71 in
(1006 mb)
SW 8.1 mph
(SW 13 kph)
- 6SM
09:12
Mostly Cloudy
50°F / 10°C 50°F / 10°C 100% 29.68 in
(1005 mb)
SW 5.8 mph
(SW 9 kph)
- 7SM
08:56
Mostly Cloudy
Fog And Mist
50°F / 10°C 50°F / 10°C 100% 29.68 in
(1005 mb)
SW 6.9 mph
(SW 11 kph)
- 2SM
08:52
Mostly Cloudy
Fog And Mist
50°F / 10°C 48°F / 9°C 94% 29.68 in
(1005 mb)
SW 6.9 mph
(SW 11 kph)
- 2SM
08:34
Obscured
Fog
48°F / 9°C 48°F / 9°C 100% 29.71 in
(1006 mb)
SW 3.5 mph
(SW 6 kph)
- 1/4SM
07:56
Obscured
Fog
48°F / 9°C 48°F / 9°C 100% 29.71 in
(1006 mb)
Calm 0.01 in
(0.25 mm)
1/2SM
06:56
Obscured
Rain
48°F / 9°C 48°F / 9°C 100% 29.71 in
(1006 mb)
S 4.6 mph
(S 7 kph)
0.03 in
(0.76 mm)
1SM
06:24
Overcast
Light Rain
50°F / 10°C 48°F / 9°C 94% 29.71 in
(1006 mb)
SSE 5.8 mph
(SSE 9 kph)
0.00 in
(0.00 mm)
1SM
06:05
Overcast
Light Rain
50°F / 10°C 48°F / 9°C 94% 29.74 in
(1007 mb)
S 4.6 mph
(S 7 kph)
0.00 in
(0.00 mm)
5SM
05:56
Overcast
Light Rain
50°F / 10°C 50°F / 10°C 100% 29.74 in
(1007 mb)
S 4.6 mph
(S 7 kph)
0.01 in
(0.25 mm)
6SM
05:47
Overcast
Light Rain
50°F / 10°C 50°F / 10°C 100% 29.74 in
(1007 mb)
S 4.6 mph
(S 7 kph)
0.01 in
(0.25 mm)
5SM
05:34
Overcast
Light Rain
50°F / 10°C 50°F / 10°C 100% 29.74 in
(1007 mb)
S 4.6 mph
(S 7 kph)
0.01 in
(0.25 mm)
6SM
05:06
Overcast
Light Rain
50°F / 10°C 48°F / 9°C 94% 29.74 in
(1007 mb)
S 5.8 mph
(S 9 kph)
0.00 in
(0.00 mm)
6SM
04:56
Overcast
Light Rain
50°F / 10°C 48°F / 9°C 94% 29.74 in
(1007 mb)
S 5.8 mph
(S 9 kph)
0.03 in
(0.76 mm)
6SM
04:50
Overcast
Light Rain
50°F / 10°C 50°F / 10°C 100% 29.74 in
(1007 mb)
S 5.8 mph
(S 9 kph)
0.03 in
(0.76 mm)
6SM
04:13
Overcast
Light Rain
52°F / 11°C 50°F / 10°C 94% 29.77 in
(1008 mb)
S 9.2 mph
(S 15 kph)
0.02 in
(0.51 mm)
6SM
03:56
Overcast
Light Rain
50°F / 10°C 50°F / 10°C 100% 29.77 in
(1008 mb)
SSE 8.1 mph
(SSE 13 kph)
0.04 in
(1.02 mm)
6SM
03:24
Overcast
Light Rain
50°F / 10°C 50°F / 10°C 100% 29.77 in
(1008 mb)
SE 10.4 mph
(SE 17 kph)
0.02 in
(0.51 mm)
5SM
03:14
Overcast
Light Rain
52°F / 11°C 50°F / 10°C 94% 29.77 in
(1008 mb)
ESE 8.1 mph
(ESE 13 kph)
0.01 in
(0.25 mm)
6SM
02:56
Overcast
Light Rain
52°F / 11°C 48°F / 9°C 88% 29.77 in
(1008 mb)
E 6.9 mph
(E 11 kph)
0.01 in
(0.25 mm)
7SM
02:45
Overcast
Light Rain
52°F / 11°C 48°F / 9°C 88% 29.8 in
(1009 mb)
E 5.8 mph
(E 9 kph)
0.00 in
(0.00 mm)
10SM
01:56
Mostly Cloudy
50°F / 10°C 48°F / 9°C 94% 29.83 in
(1010 mb)
E 6.9 mph
(E 11 kph)
- 10SM
01:16
Overcast
50°F / 10°C 48°F / 9°C 94% 29.86 in
(1011 mb)
ESE 6.9 mph
(ESE 11 kph)
- 10SM
00:56
Overcast
50°F / 10°C 48°F / 9°C 94% 29.86 in
(1011 mb)
E 5.8 mph
(E 9 kph)
- 10SM
Time Weather Temperature Dewpoint Humidity Pressure Winds Precip Visibility


Weather for websites

WeatherForYou.com, LLC is not responsible for any damages or problems caused by this service. Current weather conditions are obtained from the closest station including government and personal stations which may have varying degrees of accuracy. Weather forecasts are derived from the NOAA NDFD. Like all things, this site belongs to Jesus Christ... He just trusts me to maintain it. If you have any questions or comments email webmaster@weatherforyou.com

Copyright © 2014, WeatherForYou.com LLC. All rights reserved.